Regional Weather Roundup
Issued by NWS Grand Forks, ND

Home | Current Version | Previous Version | Text Only | Print | Product List | Glossary Off
Versions: 1 2 3 4 5 6 7 8 9 10 11 12 13 14 15 16 17 18 19 20 21 22 23 24 25 26 27 28 29 30 31 32 33 34 35 36 37 38 39 40 41 42 43 44 45 46 47 48 49 50

000
ASUS43 KFGF 251531
RWRFGF
NATIONAL WEATHER SERVICE EASTERN NORTH DAKOTA/GRAND FORKS ND
1000 AM CDT MON MAY 25 2015

 **SATELLITE DATA USED TO AUGMENT SKY COVER AT AUTOMATED STATIONS**
 *****  WEATHER ACROSS EASTERN NORTH DAKOTA  *****

CITY           SKY/WX    TMP DP  RH WIND       PRES   REMARKS
GRAND FORKS    CLOUDY    64  52  64 W9        29.77F
GRAND FRKS AFB CLOUDY    65  48  55 NW9       29.78F
GRAND FRKS NWS   N/A     61 N/A N/A NW6         N/A
DEVILS LAKE    CLOUDY    64  48  55 NW5       29.82F
FARGO          LGT RAIN  60  57  89 N9        29.77S
WAHPETON ARPT  CLOUDY    55  54  94 N12       29.74S
$$

 ***** WEATHER ACROSS CENTRAL AND WESTERN NORTH DAKOTA  *****

CITY           SKY/WX    TMP DP  RH WIND       PRES   REMARKS
BISMARCK       LGT RAIN  58  56  93 N7        29.87R FOG
MINOT          PTSUNNY   63  49  60 CALM      29.86S
JAMESTOWN      LGT RAIN  61  56  83 N3        29.81S
MINOT AFB      PTSUNNY   69  53  57 W2        29.85S
GARRISON         N/A     62  53  72 W3        29.86S
WILLISTON      PTSUNNY   62  48  60 CALM      29.88S
DICKINSON      LGT RAIN  55  52  89 NE7       29.88S FOG
HETTINGER      LGT RAIN  54  52  93 NE10      29.88R FOG
$$

 *****  OTHER AIRPORT OBSERVATIONS IN OUR AREA  *****

CITY           SKY/WX    TMP DP  RH WIND       PRES   REMARKS
WALHALLA         N/A     66  48  52 N7        29.81F
GRAFTON AIRPOR FAIR      63  50  63 N7        29.78F
VALLEY CITY AR FAIR      61  61 100 E6        29.81S
CANDO          FAIR      68  48  49 N7        29.84S
CAVALIER APRT  FAIR      66  46  48 N8        29.80S
GWINNER        NOT AVBL
SHEYENNE NWR     N/A     59  57  92 NE12      29.95S
ROLLA          FAIR      72  41  33 N16       29.85F
 ***** THE ABOVE OBSERVATIONS ARE NON NWS ARE NOT QUALITY
       CONTROLLED AND MAY MIS-REPORT RAIN FOR SNOW...
$$

  *****  WEATHER ACROSS NORTHERN MINNESOTA  *****

CITY           SKY/WX    TMP DP  RH WIND       PRES   REMARKS
FLAG ISLAND    CLOUDY    64  45  48 NE5       29.77F
WARROAD        CLOUDY    63  52  67 NE6       29.78F
ROSEAU         CLOUDY    64  52  63 NE5       29.78F
HALLOCK        CLOUDY    64  50  59 N6        29.78S
THF RVR FALLS  CLOUDY    63  52  67 CALM      29.78F
BAUDETTE       CLOUDY    59  53  80 SE5       29.77S
WASKISH        CLOUDY    61  55  82 CALM      29.79S
CROOKSTON      CLOUDY    63  54  72 W6        29.78S
STEPHEN NDAWN    N/A     63  52  67 N5          N/A
GREENBUSH NDAW   N/A     63  52  67 NE3         N/A
$$
  *****  WEATHER ACROSS CENTRAL AND WEST MINNESOTA  *****

CITY           SKY/WX    TMP DP  RH WIND       PRES   REMARKS
FOSSTON        DRIZZLE   59  54  82 CALM      29.79F
BEMIDJI        LGT RAIN  57  54  91 E8        29.76F
PARK RAPIDS    LGT RAIN  58  54  86 NE13G25   29.72F FOG
ELBOW LAKE     HVY RAIN  56  56  97 N12       29.69F
WADENA         RAIN      55  55 100 NE10G16   29.68F
DETROIT LAKES  RAIN      55  54  94 N8G16     29.76F
MOORHEAD       LGT RAIN  59  55  88 N10       29.77S
FERGUS FALLS   LGT RAIN  55  55 100 NE17G30   29.72S
MORRIS MN      DRIZZLE   61  59  94 NW8       29.68S
STAPLES        LGT RAIN  55  55 100 NE5       29.67F
$$
  *****  WEATHER ELSEWHERE ACROSS MINNESOTA  *****

CITY           SKY/WX    TMP DP  RH WIND       PRES   REMARKS
DULUTH         RAIN      59  56  89 E21G29    29.69F FOG
INTRNTL FALLS  CLOUDY    61  53  75 CALM      29.79S
ELY            DRIZZLE   59  55  88 E8        29.76F
CLOQUET        LGT RAIN  54  52  94 E10G18    29.69F
WHEATON        LGT RAIN  55  54  94 N10       29.73S
BRAINERD       LGT RAIN  57  56  96 NE8       29.67F FOG
HIBBING        LGT RAIN  59  54  83 NE8       29.75F
ALEXANDRIA     LGT RAIN  58  58 100 NE3       29.68S
SAINT CLOUD    LGT RAIN  58  58 100 S7        29.66S FOG
MINNEAPOLIS    CLOUDY    61  59  93 SW13      29.68R
$$

  *****  WEATHER ACROSS SOUTH DAKOTA  *****

CITY           SKY/WX    TMP DP  RH WIND       PRES   REMARKS
SIOUX FALLS    CLOUDY    63  57  81 SW6       29.76R
BROOKINGS      CLOUDY    61  55  82 W8        29.75S
WATERTOWN      CLOUDY    59  55  87 NW8       29.72F
HURON          CLOUDY    60  58  92 N9        29.75S
SISSETON         N/A     57  56  96 NE21G29   29.72S
ABERDEEN       CLOUDY    59  55  87 NE12      29.78R
MITCHELL       CLOUDY    61  58  90 W3        29.78R
PIERRE         CLOUDY    59  55  87 NE8       29.77S
MOBRIDGE       LGT RAIN  58  58 100 N8        29.79F FOG
RAPID CITY     CLOUDY    56  53  90 NW14      29.83S
$$

  *****  SOME WEATHER IN NEARBY STATES *****

CITY           SKY/WX    TMP DP  RH WIND       PRES   REMARKS
GLASGOW MT     MOSUNNY   61  47  59 SW3       29.88F
GREAT FALLS MT MOSUNNY   55  46  71 SW7       29.92F
CHEYENNE WY    CLOUDY    48  40  73 NW14G22   29.91S
SCOTTSBLUFF NE RAIN      51  50  96 W10       29.85S FOG
OMAHA NE       PTSUNNY   66  59  78 S8        29.82R
DES MOINES IA  PTSUNNY   70  61  73 SW15      29.82F
DAVENPORT IA   LGT RAIN  67  63  87 SW15      29.87S
CHICAGO IL     LGT RAIN  67  62  84 SW16G31   29.87R
EAU CLAIRE WI  CLOUDY    63  60  90 SW7       29.69R
LA CROSSE WI   CLOUDY    69  62  78 SW12      29.73R
$$

  *****  SOME NATIONAL WEATHER *****

CITY           SKY/WX    TMP DP  RH WIND       PRES   REMARKS
LA GUARDIA NY  MOSUNNY   77  55  46 SW9       30.25F
RALEIGH NC     MOSUNNY   76  60  57 SW9       30.36S
ATLANTA GA     PTSUNNY   77  64  65 SE9       30.28S
NEW ORLEANS LA CLOUDY    83  75  77 SE12      30.07S HX  90
OKLAHOMA CITY  CLOUDY    71  66  84 S15       29.89S
ALBUQUERQUE NM MOSUNNY   55  43  63 S6        30.02R
SALT LAKE CITY PTSUNNY   55  49  80 SE7       29.97R
LOS ANGELES CA CLOUDY    59  54  83 VRB5      29.99R
BOISE ID       MOSUNNY   64  46  52 SE9       29.90R
SEATTLE WA     CLOUDY    53  48  83 SW6       30.02S
$$

*** WEATHER ACROSS MANITOBA...SASKATCHEWAN AND ONTARIO ***
                ***ONTARIO***

CITY           SKY/WX    TMP DP  RH WIND       PRES   REMARKS
GERALDTON      CLOUDY    59  48  67 E5        29.87F
THUNDER BAY    LGT RAIN  48  45  87 NE8       29.84F
SIOUX LOOKOUT  CLOUDY    68  48  49 N3        29.80
TORONTO        PTSUNNY   68  50  52 S8        30.04F
BIG TROUT LK   SUNNY     52  37  58 E7        29.88F
PICKLE LAKE    PTSUNNY   64  41  42 NE2       29.85F
DRYDEN         CLOUDY    66  45  45 NE7       29.80S
KENORA         CLOUDY    70  45  40 NE6       29.80F
$$
                *** MANITOBA***

CITY           SKY/WX    TMP DP  RH WIND       PRES   REMARKS
BRANDON        CLOUDY    75  43  31 NW9       29.84F
DAUPHIN        SUNNY     68  46  45 NW6       29.81F
ISLAND LAKE    MOSUNNY   59  41  51 W3        29.84F
PILOT MOUND      N/A     70  43  37 N12         N/A
THE PAS        MOSUNNY   72  46  40 S6        29.81F
THOMPSON       SUNNY     57  39  51 S2        29.82F
WINNIPEG       CLOUDY    70  45  40 NE3       29.81F
LYNN LAKE      SUNNY     63  39  42 SE3       29.78F
CHURCHILL      PTSUNNY   41  27  56 SW9       29.88F
GILLAM         SUNNY     48  25  40 S8        29.88F
$$
                ***SASKATCHEWAN***

CITY           SKY/WX    TMP DP  RH WIND       PRES   REMARKS
ESTEVAN        PTSUNNY   66  48  52 CALM      29.87
KINDERSLEY     PTSUNNY   70  34  26 S8        29.89S
LLOYDMINSTER   PTSUNNY   70  34  26 NW8       29.87F
PRINCE ALBERT  PTSUNNY   66  45  45 SW2       29.84S
REGINA         PTSUNNY   68  43  40 SW5       29.87F
YORKTON        SUNNY     68  48  49 VRB2      29.84F
N. BATTLEFORD  SUNNY     66  45  45 CALM      29.89S
LA RONGE       PTSUNNY   66  43  42 SW5       29.80F
SASKATOON      PTSUNNY   70  43  37 SW3       29.87F
SWIFT CURRENT  PTSUNNY   68  39  34 W5        29.90S
$$
NOTE: THESE ARE AUTOMATED STATIONS WITH LIMITED QUALITY CONTROL
      "FAIR" INDICATES FEW OR NO CLOUDS BELOW 12,000 FEET WITH NO
      SIGNIFICANT WEATHER AND/OR OBSTRUCTIONS TO VISIBILITY.
      SKY/WX - SKY CONDITION AND SIGNIFICANT WEATHER.
      TMP - AIR TEMPERATURE.    DP   - DEWPOINT TEMPERATURE.
      RH  - RELATIVE HUMIDITY.  PRES - PRESSURE.
      HX  - HEAT INDEX.         WCI  - WIND CHILL INDEX.
$


USA.gov is the U.S. government's official web portal to all federal, state and local government web resources and services.